Location: Borger
(52.9222°N, 6.7926°E)
Time: 21:07:21
(UTC+00:00)

USA 234 - Pass Details

Date: 15 May 2026
Orbit: 1102 x 1106 km, 123.0° (Epoch: 4 January)

Event Time Altitude Azimuth Distance (km) Brightness Sun altitude
Rises 22:39:00 0° 60° (ENE) 3,927 6.4 -17.2°
Reaches altitude 10° 22:41:49 10° 71° (ENE) 2,966 5.6 -17.3°
Maximum altitude 22:47:33 31° 132° (SE) 1,815 4.0 -17.5°
Enters shadow 22:49:36 26° 163° (SSE) 2,002 4.0 -17.5°
